Flag for Germany Weather past 2 weeks in Leipzig, Saxony, Germany

Now
36 °F

Partly cloudy.


Feels Like: 29 °F
Forecast: 29 / 36 °F
Wind: 8 mph from South

Location: Leipzig-Schkeuditz

Current Time: Jan 30, 2015 at 7:37:34 AM

Latest Report: Jan 30, 2015 at 7:20 AM


Visibility: N/A

Pressure: 28.68 "Hg

Humidity: 93%

Dew point: 34 °F

Location of LeipzigLocation

Historic Weather in Leipzig — Graph

°F

Leipzig temperature yesterday

Maximum temperature yesterday: 39 °F (at 11:50 AM)
Minimum temperature yesterday: 32 °F (at 6:50 PM)
Average temperature yesterday: 36 °F

Past Weeks' High & Low Weather Summary

 TemperatureHumidityPressure
High48 °F (Jan 15, 2:50 PM)100% (Jan 16, 5:50 PM)30.30 "Hg (Jan 16, 5:50 PM)
Low27 °F (Jan 18, 6:50 AM)57% (Jan 15, 10:50 PM)28.68 "Hg (Jan 30, 4:20 AM)
Average35 °F91%29.89 "Hg
* Reported Jan 15 6:20 AM — Jan 30 6:20 AM, Leipzig, Weather by CustomWeather, © 2014

Note: Actual official high and low records may vary slightly from our data, if they occured in-between our weather recording intervals... More about our weather records

Advertising

Leipzig weather history for previous 24 hours

 ConditionsComfort  
Time TempWeatherWind HumidityBarometerVisibility
6:20 AM
Jan 30
36 °FPassing clouds.8 mph100%28.68 "HgN/A
5:50 AM36 °FLight rain. Partly cloudy.9 mph93%28.68 "HgN/A
5:20 AM36 °FLight rain. Partly cloudy.8 mph100%28.68 "HgN/A
4:20 AM36 °FLight rain. Passing clouds.9 mph100%28.68 "HgN/A
3:50 AM36 °FLight rain. Partly cloudy.9 mph100%28.71 "HgN/A
3:20 AM36 °FLight rain. Passing clouds.12 mph100%28.71 "HgN/A
2:50 AM36 °FLight rain. Passing clouds.12 mph100%28.71 "HgN/A
2:20 AM36 °FLight rain. Partly cloudy.13 mph93%28.74 "HgN/A
1:50 AM36 °FLight rain. Passing clouds.16 mph93%28.77 "HgN/A
1:20 AM37 °FLight rain. Partly cloudy.16 mph87%28.77 "HgN/A
12:50 AM37 °FPartly cloudy.14 mph81%28.77 "HgN/A
12:20 AM37 °FClear.16 mph81%28.80 "Hg10 mi
11:50 PM
Jan 29
37 °FClear.15 mph81%28.80 "Hg10 mi
11:20 PM37 °FPartly cloudy.16 mph81%28.82 "HgN/A
10:50 PM37 °FPartly cloudy.17 mph81%28.85 "HgN/A
10:20 PM37 °FPartly cloudy.15 mph81%28.85 "HgN/A
9:50 PM37 °FLight rain. Partly cloudy.15 mph81%28.88 "HgN/A
9:20 PM37 °FClear.17 mph81%28.91 "Hg10 mi
8:50 PM36 °FClear.18 mph87%28.94 "Hg10 mi
8:20 PM36 °FClear.16 mph87%28.94 "Hg10 mi
7:50 PM34 °FClear.15 mph87%28.97 "Hg10 mi
7:20 PM34 °FPassing clouds.13 mph87%29.00 "HgN/A
6:50 PM32 °FPassing clouds.12 mph93%29.03 "HgN/A
6:20 PM34 °FPassing clouds.13 mph87%29.03 "HgN/A
5:50 PM34 °FPassing clouds.12 mph93%29.06 "HgN/A
5:20 PM36 °FPassing clouds.12 mph87%29.06 "HgN/A
4:50 PM37 °FScattered clouds.16 mph75%29.09 "HgN/A
4:20 PM37 °FBroken clouds.13 mph75%29.09 "HgN/A
3:50 PM37 °FBroken clouds.17 mph81%29.12 "HgN/A
3:20 PM37 °FPartly sunny.15 mph81%29.12 "HgN/A
2:50 PM36 °FPassing clouds.16 mph93%29.15 "HgN/A
2:20 PM37 °FSnow flurries. Broken clouds.20 mph75%29.15 "HgN/A
1:50 PM39 °FBroken clouds.15 mph70%29.18 "HgN/A
1:20 PM39 °FBroken clouds.15 mph65%29.21 "HgN/A
12:50 PM39 °FBroken clouds.21 mph65%29.21 "HgN/A
12:20 PM39 °FScattered clouds.21 mph65%29.24 "HgN/A
11:50 AM39 °FScattered clouds.23 mph65%29.27 "HgN/A
11:20 AM37 °FPartly sunny.18 mph70%29.27 "HgN/A
10:50 AM37 °FScattered clouds.17 mph70%29.30 "HgN/A
10:20 AM36 °FPartly sunny.21 mph70%29.30 "HgN/A
9:50 AM36 °FPassing clouds.15 mph75%29.30 "HgN/A
9:20 AM34 °FPassing clouds.15 mph81%29.30 "HgN/A
8:50 AM34 °FSunny.14 mph81%29.33 "Hg10 mi
8:20 AM34 °FSunny.16 mph81%29.33 "Hg10 mi
7:50 AM34 °FClear.17 mph81%29.33 "Hg10 mi
7:20 AM34 °FClear.16 mph81%29.33 "Hg10 mi
Weather by CustomWeather, © 2014

See weather overviewHow to use our weather pages